Wind_Speed
6 7 8 9 10 11 11 12 12 11 11 11 10 10 10 12 13 13 13 14 14 14 15 15 15 15 15 15 14 13 13 12 13 13 14 14 14 14 14 14 13 12
9 7 7 8 9 9 10 10 9 9 10 9 8 8 7 9 12 12 12 12 12 14 15 16 16 16 17 17 16 16 15 14 13 14 14 14 14 14 14 13 12 11
10 8 7 8 10 10 9 9 9 9 9 9 8 6 6 7 8 9 10 9 10 11 12 12 14 15 16 17 18 17 17 16 15 14 14 13 13 13 13 12 12 11
12 11 10 10 11 12 12 12 12 12 11 11 10 8 6 6 7 8 8 8 8 9 9 9 10 12 14 16 17 17 17 17 16 15 14 14 13 13 13 13 12 11
14 13 12 13 13 14 16 17 17 17 15 14 13 12 9 8 8 8 9 9 8 8 7 7 7 9 11 13 15 16 17 17 16 15 15 14 14 13 13 13 12 11
15 14 14 15 15 16 17 18 19 19 17 15 14 13 12 11 10 10 10 9 8 8 7 6 7 8 9 11 13 15 15 15 15 15 15 14 14 13 12 12 11 11
16 15 16 16 17 18 18 18 18 17 15 14 14 14 13 13 12 11 11 10 10 9 8 7 7 8 9 10 11 12 13 14 14 14 14 14 14 13 12 12 12 12
17 16 16 17 18 18 18 18 17 15 14 14 14 14 14 14 13 13 12 11 10 9 8 8 8 8 8 9 9 10 11 12 12 12 12 12 12 12 12 12 12 13
20 18 17 18 19 19 19 18 17 15 15 15 15 15 15 14 14 13 12 12 10 9 9 8 9 9 8 8 8 9 10 10 10 9 9 10 10 10 11 11 12 12
22 20 19 19 20 21 20 19 17 16 16 16 16 16 15 14 13 13 12 12 11 10 10 10 10 10 10 9 9 9 9 9 9 9 9 9 9 10 10 11 11 11
22 21 20 21 23 22 21 20 18 17 17 18 18 17 17 16 14 14 13 13 12 11 11 11 11 12 11 11 11 10 10 10 10 10 10 10 10 10 10 11 11 12
21 22 23 24 24 23 22 21 20 19 20 20 20 19 18 17 16 16 15 15 14 14 13 13 13 13 13 13 13 12 12 12 12 11 11 11 12 12 13 14 14 15
21 23 25 26 26 25 24 22 21 21 21 21 21 20 19 18 18 18 18 17 17 16 15 15 14 14 14 15 15 14 14 14 13 13 14 14 15 16 16 17 17 17
24 25 26 28 28 26 24 23 22 22 22 21 21 20 20 20 19 19 20 19 19 19 17 17 16 16 16 16 16 16 16 16 15 15 16 17 17 18 18 19 19 19
25 25 25 27 27 25 23 22 22 21 21 21 22 22 21 21 21 21 21 20 20 20 19 19 18 18 18 18 17 18 18 17 17 17 18 18 19 20 20 21 22 22
22 21 21 23 24 23 22 22 21 21 21 22 23 23 22 22 22 22 22 22 22 22 21 21 21 20 20 20 20 20 20 19 19 18 19 19 19 20 21 23 24 25
20 18 16 18 20 21 21 22 22 23 23 23 23 23 23 23 24 25 25 25 25 24 23 23 23 22 22 22 22 22 21 21 20 19 19 20 20 21 22 22 24 26
18 18 16 16 18 20 21 22 24 25 25 24 24 24 25 26 27 28 28 27 27 26 25 24 24 24 24 24 24 24 23 23 22 22 21 21 22 22 23 24 26 27
21 22 22 22 22 22 23 25 27 27 27 27 26 27 28 29 29 30 29 28 27 27 26 25 26 26 27 27 27 26 26 25 25 24 24 24 24 24 25 26 26 27
25 27 28 28 27 26 26 28 29 30 31 31 30 30 30 30 30 30 30 29 28 28 27 27 28 29 30 30 30 30 29 29 29 28 27 27 27 27 28 28 28 29
29 30 32 33 33 30 29 30 30 31 32 31 31 31 31 31 31 31 31 31 30 31 31 31 32 32 32 33 33 32 33 33 33 33 32 30 29 29 30 31 32 33
31 32 33 34 35 33 32 32 31 31 31 32 32 33 33 33 33 33 34 34 35 35 36 36 36 36 36 37 37 37 37 38 38 38 37 34 32 31 32 33 35 36
32 33 34 35 36 36 35 34 33 33 33 34 35 36 36 37 37 38 38 38 39 40 41 41 41 41 40 41 42 43 43 43 42 42 41 40 36 34 34 35 37 38
33 34 35 35 36 37 37 37 37 37 37 37 38 39 39 40 40 41 42 42 43 44 45 46 45 45 45 46 47 48 48 47 45 44 44 44 43 40 39 40 41 41
38 38 38 37 38 40 41 41 42 42 41 41 41 41 42 43 43 44 44 46 47 47 48 48 49 49 49 50 51 51 50 49 47 46 46 47 47 47 46 46 46 46
43 42 42 42 43 44 45 46 45 45 45 44 44 44 45 46 47 47 48 49 50 51 51 52 52 52 51 51 51 51 51 49 48 47 48 49 51 51 51 51 51 51
Wind_Direction
241 237 232 232 233 233 234 239 243 248 253 256 255 254 246 240 242 244 243 243 247 251 255 258 259 259 258 256 255 254 253 253 252 252 254 253 250 248 247 246 245 242
246 237 226 226 226 221 219 226 238 248 254 256 255 254 246 235 236 240 242 243 245 249 253 256 257 257 257 257 256 255 253 250 247 245 246 247 247 248 250 251 250 247
233 225 223 230 231 226 220 222 237 249 255 259 258 254 246 236 234 235 236 237 238 244 250 251 252 252 254 254 255 255 254 252 249 246 246 248 249 251 253 253 252 249
230 231 235 236 235 233 231 230 236 243 251 261 263 258 246 234 232 232 234 237 240 245 249 251 252 252 253 254 254 254 253 252 251 250 250 250 251 253 254 255 255 254
233 236 237 238 238 236 235 236 239 244 250 255 257 256 250 241 238 240 243 246 247 250 251 254 259 260 259 259 257 256 255 255 255 254 254 253 253 253 253 255 255 253
234 239 243 244 244 242 240 240 242 245 247 246 247 250 249 245 245 248 251 252 253 256 259 261 264 265 264 264 262 261 260 259 259 258 257 256 256 256 254 253 252 250
237 242 244 246 249 247 245 242 240 240 238 238 242 245 246 247 249 252 253 254 257 260 264 266 264 263 264 265 267 267 265 263 262 262 261 261 261 262 262 261 260 258
239 241 241 242 246 245 241 237 233 230 230 235 239 241 244 247 249 252 253 254 257 261 265 266 262 260 260 261 265 266 267 266 265 265 264 265 266 267 267 267 267 266
233 235 236 238 240 237 233 230 227 226 229 234 237 240 244 248 250 252 253 255 257 261 265 266 264 265 266 265 263 261 261 262 263 264 266 267 269 268 268 269 269 271
228 230 231 233 232 229 226 225 225 227 232 235 239 243 248 251 253 254 256 257 259 262 265 265 266 268 270 270 269 266 265 263 261 262 265 267 268 268 269 271 275 277
228 228 231 230 227 224 223 224 226 230 235 239 243 247 251 252 254 256 259 261 263 266 268 269 272 275 278 280 279 275 274 274 273 273 274 276 277 278 282 285 288 290
233 230 231 229 226 223 222 224 228 232 237 241 245 248 250 249 252 254 257 259 261 264 267 270 275 280 283 286 285 282 282 282 283 284 286 289 292 296 301 304 307 308
234 232 231 227 224 224 224 225 229 233 237 242 244 246 247 247 249 251 253 255 256 259 263 266 271 275 278 280 281 281 283 285 287 289 292 295 298 302 306 310 313 315
233 231 229 225 222 223 226 228 231 234 237 241 243 244 245 246 247 248 250 253 255 257 260 263 266 269 271 274 276 278 281 283 286 289 292 295 297 300 303 306 307 308
235 231 229 226 223 225 228 230 234 237 240 243 245 245 245 245 245 246 249 253 254 256 258 261 265 267 268 270 273 275 277 280 284 287 289 292 295 298 300 301 301 300
232 230 235 233 228 229 230 232 237 241 242 243 243 243 244 244 245 246 248 252 255 256 258 261 264 266 268 269 271 272 274 277 280 282 284 287 291 294 296 297 297 296
228 228 238 237 232 231 232 235 240 241 239 239 240 241 243 245 247 248 250 252 254 256 258 260 262 264 266 267 268 269 271 272 273 276 280 284 288 291 292 292 292 291
232 231 234 235 240 244 242 240 240 238 236 237 240 243 245 247 249 250 251 252 254 255 257 259 262 264 265 264 265 266 266 266 270 275 279 283 286 288 290 290 290 290
236 236 235 237 248 255 250 245 241 239 237 238 241 244 246 248 249 250 251 252 253 254 255 259 262 264 265 264 264 265 265 266 270 274 277 279 283 285 287 287 288 287
238 237 237 243 251 252 245 243 242 239 238 239 242 243 244 245 246 248 249 250 251 252 254 258 261 263 264 264 264 265 266 268 271 272 272 275 280 284 287 288 286 283
239 240 242 247 252 250 244 242 242 240 242 245 247 248 248 248 248 249 250 251 252 253 254 257 259 260 260 261 262 264 266 268 269 269 268 271 277 282 286 289 288 286
244 246 248 251 254 254 251 248 247 246 247 249 250 251 251 251 252 252 252 253 255 255 256 258 260 260 260 260 260 261 264 265 266 265 264 266 271 277 282 286 287 286
252 253 255 257 258 258 257 254 253 253 253 253 253 253 253 253 253 254 254 255 256 257 258 259 261 262 262 262 261 261 262 263 263 261 260 262 265 271 276 280 282 282
255 256 257 257 256 255 254 254 256 258 258 258 257 257 256 256 256 257 257 258 259 260 261 261 262 262 262 263 263 263 264 264 262 259 258 260 264 269 273 277 281 282
254 255 256 256 255 255 256 259 262 264 264 263 263 262 262 261 260 259 259 259 260 262 262 262 262 262 264 264 263 264 265 265 263 260 258 259 264 269 273 276 281 283
255 256 257 258 258 259 262 265 267 268 268 267 267 267 267 267 266 264 262 262 263 263 263 263 262 263 265 265 264 264 265 265 263 261 261 262 265 269 272 275 280 283
Height
5772 5772 5772 5772 5774 5774 5775 5775 5775 5776 5777 5777 5778 5778 5778 5778 5778 5778 5779 5780 5780 5780 5780 5781 5781 5781 5782 5782 5782 5783 5783 5783 5783 5783 5784 5784 5784 5784 5785 5785 5785 5786
5772 5771 5771 5772 5773 5773 5773 5773 5774 5774 5775 5775 5776 5776 5776 5776 5776 5776 5777 5778 5779 5779 5779 5779 5779 5779 5779 5780 5780 5781 5781 5781 5781 5781 5781 5782 5782 5782 5783 5783 5784 5784
5771 5771 5771 5771 5771 5771 5771 5772 5772 5773 5774 5774 5774 5774 5774 5774 5775 5775 5776 5776 5777 5777 5777 5777 5777 5777 5777 5778 5778 5778 5779 5779 5779 5779 5779 5780 5780 5780 5781 5781 5782 5782
5769 5769 5770 5770 5770 5770 5770 5770 5771 5771 5772 5772 5772 5772 5773 5773 5773 5774 5774 5775 5775 5775 5775 5775 5775 5775 5775 5776 5776 5776 5777 5777 5777 5777 5777 5777 5778 5778 5778 5779 5779 5780
5768 5768 5768 5768 5768 5768 5768 5768 5769 5769 5770 5770 5770 5771 5771 5772 5772 5773 5773 5773 5773 5773 5773 5773 5773 5773 5774 5774 5774 5774 5775 5775 5775 5775 5775 5775 5775 5776 5776 5776 5777 5778
5766 5765 5765 5765 5766 5766 5766 5766 5766 5767 5767 5768 5768 5769 5770 5770 5771 5771 5772 5772 5772 5772 5772 5772 5772 5772 5772 5773 5773 5773 5773 5773 5773 5773 5773 5773 5773 5774 5774 5774 5775 5775
5763 5763 5763 5763 5763 5764 5764 5764 5764 5764 5765 5766 5766 5767 5768 5768 5769 5769 5770 5770 5771 5771 5771 5771 5771 5771 5771 5771 5771 5771 5771 5771 5771 5771 5771 5771 5771 5772 5772 5772 5772 5773
5759 5759 5760 5760 5761 5762 5762 5762 5762 5763 5763 5764 5764 5765 5766 5767 5767 5768 5768 5769 5769 5769 5769 5769 5769 5769 5769 5769 5770 5770 5769 5769 5769 5769 5769 5769 5769 5769 5770 5770 5770 5770
5756 5756 5757 5758 5759 5759 5759 5760 5760 5761 5761 5762 5763 5764 5764 5765 5765 5766 5766 5767 5767 5767 5768 5768 5768 5768 5768 5768 5768 5768 5767 5767 5767 5767 5767 5767 5767 5767 5768 5768 5768 5768
5753 5753 5755 5756 5757 5757 5757 5757 5758 5759 5759 5760 5761 5762 5762 5763 5763 5764 5764 5765 5765 5765 5766 5766 5766 5766 5766 5766 5766 5766 5766 5766 5766 5766 5766 5766 5766 5766 5766 5766 5765 5765
5751 5752 5753 5754 5754 5754 5755 5755 5756 5756 5757 5758 5759 5759 5760 5761 5761 5761 5762 5762 5762 5763 5763 5764 5764 5764 5764 5764 5764 5764 5764 5764 5764 5764 5764 5764 5764 5764 5764 5764 5764 5763
5750 5750 5752 5752 5752 5752 5752 5753 5753 5754 5755 5756 5756 5757 5757 5758 5758 5759 5759 5760 5760 5761 5761 5761 5761 5761 5762 5762 5763 5763 5762 5763 5762 5762 5762 5762 5762 5762 5762 5761 5761 5761
5748 5748 5749 5749 5749 5750 5750 5750 5751 5751 5752 5753 5754 5755 5755 5756 5756 5757 5757 5757 5758 5758 5758 5759 5759 5759 5759 5760 5760 5760 5760 5760 5760 5760 5760 5759 5759 5759 5758 5758 5758 5758
5746 5746 5745 5746 5747 5748 5748 5749 5749 5750 5750 5751 5752 5752 5753 5753 5754 5754 5755 5755 5755 5756 5756 5757 5757 5757 5757 5757 5757 5758 5758 5758 5758 5757 5757 5756 5756 5755 5755 5755 5755 5756
5743 5743 5744 5744 5746 5747 5747 5748 5748 5749 5749 5749 5749 5750 5751 5751 5752 5752 5752 5753 5753 5754 5754 5754 5754 5755 5755 5755 5755 5755 5755 5755 5755 5755 5755 5754 5753 5753 5752 5752 5752 5752
5739 5741 5742 5744 5744 5745 5746 5747 5747 5747 5747 5747 5747 5748 5748 5749 5749 5750 5750 5750 5751 5751 5752 5752 5752 5752 5752 5752 5752 5752 5752 5752 5752 5752 5752 5751 5751 5750 5750 5749 5749 5749
5737 5739 5740 5741 5742 5742 5743 5743 5744 5744 5745 5744 5745 5745 5746 5746 5747 5747 5747 5748 5748 5748 5749 5749 5749 5749 5749 5749 5749 5749 5749 5749 5749 5749 5749 5749 5748 5747 5747 5747 5747 5747
5735 5736 5737 5739 5740 5740 5739 5740 5741 5741 5742 5742 5742 5742 5743 5743 5743 5743 5744 5744 5745 5745 5746 5746 5746 5746 5747 5747 5747 5747 5746 5746 5746 5746 5746 5746 5745 5745 5745 5745 5744 5744
5732 5733 5734 5735 5736 5737 5737 5737 5738 5738 5739 5739 5739 5739 5739 5739 5739 5740 5740 5741 5742 5742 5743 5743 5743 5743 5743 5744 5743 5743 5743 5743 5743 5743 5743 5742 5742 5742 5742 5742 5742 5742
5728 5729 5729 5730 5731 5732 5733 5734 5734 5734 5735 5735 5735 5735 5735 5735 5735 5736 5737 5737 5738 5739 5739 5739 5739 5739 5739 5740 5740 5740 5739 5739 5739 5739 5739 5738 5738 5738 5738 5738 5739 5739
5724 5725 5725 5726 5726 5728 5729 5729 5730 5730 5731 5731 5731 5731 5731 5732 5732 5733 5733 5734 5734 5735 5735 5735 5735 5735 5736 5735 5736 5736 5736 5735 5735 5735 5734 5733 5733 5733 5734 5734 5734 5734
5721 5721 5722 5722 5723 5723 5724 5725 5726 5727 5727 5727 5727 5727 5727 5728 5728 5729 5729 5730 5730 5730 5730 5730 5730 5731 5731 5731 5731 5731 5731 5731 5731 5731 5730 5729 5729 5729 5729 5729 5729 5729
5718 5718 5718 5718 5719 5719 5720 5721 5722 5722 5723 5723 5723 5723 5723 5723 5724 5724 5724 5725 5726 5726 5726 5726 5725 5725 5726 5726 5726 5726 5725 5726 5726 5726 5725 5725 5724 5724 5724 5724 5724 5725
5713 5713 5713 5713 5714 5714 5715 5715 5716 5717 5717 5718 5718 5718 5718 5718 5718 5719 5719 5720 5720 5720 5720 5720 5720 5720 5719 5719 5719 5719 5719 5719 5720 5720 5720 5719 5718 5718 5718 5719 5719 5719
5708 5708 5708 5708 5708 5708 5709 5710 5710 5711 5711 5712 5712 5712 5712 5712 5713 5713 5713 5713 5713 5713 5714 5714 5713 5713 5713 5712 5712 5712 5712 5712 5712 5713 5713 5712 5712 5711 5711 5712 5712 5712
5702 5702 5702 5703 5703 5703 5703 5703 5704 5704 5704 5704 5705 5705 5705 5705 5705 5706 5706 5706 5706 5706 5706 5706 5707 5707 5706 5706 5706 5706 5705 5705 5705 5706 5706 5706 5705 5704 5704 5704 5705 5705